Tracking 28764 objects as of 13-Apr-2024
HD Live streaming from Space Station
objects crossing your sky now

COSMOS 2302

Track COSMOS 2302 now!
10-day predictions
COSMOS 2302 is classified as:


NORAD ID: 23444
Int'l Code: 1994-086D
Perigee: 1,419.4 km
Apogee: 1,430.6 km
Inclination: 82.6 °
Period: 114.2 minutes
Semi major axis: 7795 km
RCS: 1.0234 m2 (large)
Launch date: December 26, 1994
Source: Commonwealth of Independent States (former USSR) (CIS)
Launch site: PLESETSK MISSILE AND SPACE COMPLEX (PKMTR)
Your satellite tracking list
Your tracking list is empty




NASA's NSSDC Master Catalog

Two Line Element Set (TLE):
1 23444U 94086D   24103.52038473  .00000010  00000-0 -81632-6 0  9994
2 23444  82.5606 114.8940 0007201 172.3400 300.5494 12.61240161348510
Source of the keplerian elements: AFSPC